This is the latest recevied weather packets stored in our database for station/object K5BOU. If no packets are shown the sender has not sent any weather packets the latest 10 day(s).
| Time | Temp. | Humidity | Pressure | Rain* | Wind** | Luminosity | Snow |
|---|---|---|---|---|---|---|---|
| 1777944705 | 23.33° C | 85% | 1008.5 hPa | 0 mm | - | 0 W/m² | - |
| 1777944404 | 23.33° C | 85% | 1008.5 hPa | 0 mm | - | 0 W/m² | - |
| 1777944100 | 23.33° C | 85% | 1008.5 hPa | 0 mm | - | 0 W/m² | - |
| 1777943795 | 23.33° C | 85% | 1008.3 hPa | 0 mm | - | 0 W/m² | - |
| 1777943488 | 23.89° C | 85% | 1008.6 hPa | 0 mm | - | 0 W/m² | - |
| 1777943188 | 23.89° C | 84% | 1008.6 hPa | 0 mm | - | 0 W/m² | - |
| 1777942885 | 23.89° C | 83% | 1008.2 hPa | 0 mm | - | 0 W/m² | - |
| 1777942581 | 23.89° C | 83% | 1008.4 hPa | 0 mm | - | 3 W/m² | - |
| 1777942278 | 23.89° C | 82% | 1008.4 hPa | 0 mm | - | 6 W/m² | - |
| 1777941975 | 24.44° C | 82% | 1008.4 hPa | 0 mm | - | 11 W/m² | - |
| 1777941672 | 24.44° C | 81% | 1008.4 hPa | 0 mm | - | 13 W/m² | - |
| 1777941369 | 24.44° C | 81% | 1008.3 hPa | 0 mm | - | 20 W/m² | - |
| 1777941067 | 24.44° C | 81% | 1008.2 hPa | 0 mm | - | 26 W/m² | - |
| 1777940762 | 24.44° C | 81% | 1008.3 hPa | 0 mm | - | 36 W/m² | - |
| 1777940461 | 24.44° C | 80% | 1008.3 hPa | 0 mm | - | 29 W/m² | - |
| 1777940158 | 24.44° C | 80% | 1008.3 hPa | 0 mm | - | 26 W/m² | - |
| 1777939855 | 25° C | 81% | 1008.1 hPa | 0 mm | - | 25 W/m² | - |
| 1777939552 | 25° C | 80% | 1008.1 hPa | 0 mm | - | 38 W/m² | - |
| 1777939250 | 25° C | 80% | 1008 hPa | 0 mm | - | 38 W/m² | - |
| 1777938946 | 25° C | 80% | 1008.1 hPa | 0 mm | - | 67 W/m² | - |
| 1777938643 | 25.56° C | 79% | 1008.3 hPa | 0 mm | - | 62 W/m² | - |
| 1777938340 | 25.56° C | 78% | 1008.5 hPa | 0 mm | - | 60 W/m² | - |
| 1777938037 | 26.11° C | 77% | 1008.4 hPa | 0 mm | - | 77 W/m² | - |
| 1777937732 | 26.11° C | 78% | 1008.4 hPa | 0 mm | - | 104 W/m² | - |
| 1777937429 | 26.11° C | 78% | 1008.4 hPa | 0 mm | - | 141 W/m² | - |
* Rain latest hour (hover to see other rain measurements)
** Current wind speed in m/s (hover to see current wind gust speed)